JQ1YUX-13 Tokyo Ota-ku JP current weather conditions

sailwx.info

Wind from 330

Air temperature 15.0° C
Dewpoint 12.5° C

Last reported at 2014-Nov-28 04:45 UTC.
Time now 2014-Nov-28 05:47 UTC

Location: N 35°35' E 139°40'.
View on Google Maps.

See reports from other nearby stations

  
Tides and Currents Weather Stations Pressure Air Temp Water Temp Dewpoint Dewpoint Depression Visibility Wind Speed Wind Dir Waves Ship Positions
date/time (UTC)wind fromknots sea level pressurealtimeterstation pressurevisibilityair tempwater tempwave heightnotes
2014-Nov-28 04:45 330 15.0
2014-Nov-28 04:21 011 15.0
2014-Nov-28 04:15 010 0 gusting 3 15.0
2014-Nov-28 03:51 012 15.0
2014-Nov-28 03:45 324 15.0
2014-Nov-28 03:21 294 15.0
2014-Nov-28 03:15 294 15.0
2014-Nov-28 02:51 300 14.4
2014-Nov-28 02:45 300 14.4
2014-Nov-28 02:21 300 14.4
2014-Nov-28 02:15 271 14.4
2014-Nov-28 01:51 005 14.4
2014-Nov-28 01:45 005 14.4
2014-Nov-28 01:21 009 13.9
2014-Nov-28 01:15 005 13.9
2014-Nov-28 00:51 286 13.9
2014-Nov-28 00:45 286 13.9
2014-Nov-28 00:21 341 13.3
2014-Nov-28 00:15 341 12.8
2014-Nov-27 23:51 355 12.2
2014-Nov-27 23:45 355 12.2
2014-Nov-27 23:21 042 11.7
2014-Nov-27 23:15 044 11.7
2014-Nov-27 22:51 322 11.1
2014-Nov-27 22:45 322 11.1
2014-Nov-27 22:21 322 11.1
2014-Nov-27 22:15 322 11.1
2014-Nov-27 21:51 322 10.6
2014-Nov-27 21:45 321 10.6
2014-Nov-27 21:21 321 11.1
2014-Nov-27 21:15 322 11.1
2014-Nov-27 20:51 240 11.1
2014-Nov-27 20:45 240 0 gusting 3 11.1
2014-Nov-27 20:21 232 11.1
2014-Nov-27 20:15 232 11.1
2014-Nov-27 19:51 232 11.1
2014-Nov-27 19:45 232 11.1
2014-Nov-27 19:21 232 11.1
2014-Nov-27 19:15 232 11.1
2014-Nov-27 18:51 232 11.1
2014-Nov-27 18:45 232 11.1
2014-Nov-27 18:21 232 11.1
2014-Nov-27 18:15 232 11.1
2014-Nov-27 17:51 232 11.1
2014-Nov-27 17:45 232 11.1
2014-Nov-27 17:21 232 10.6
2014-Nov-27 17:15 232 10.6
2014-Nov-27 16:51 232 10.6
2014-Nov-27 16:45 232 10.6
2014-Nov-27 16:21 232 10.6
2014-Nov-27 16:15 232 10.6
2014-Nov-27 15:51 232 10.0
2014-Nov-27 15:45 232 10.0
2014-Nov-27 15:21 232 10.0
2014-Nov-27 15:15 232 10.6
2014-Nov-27 14:51 232 10.6
2014-Nov-27 14:45 232 10.6
2014-Nov-27 14:21 232 10.6
2014-Nov-27 14:15 232 10.6
2014-Nov-27 13:51 232 11.1
2014-Nov-27 13:45 232 11.1
2014-Nov-27 13:21 232 11.1
2014-Nov-27 13:15 232 11.1
2014-Nov-27 12:51 232 11.7
2014-Nov-27 12:45 232 11.7
2014-Nov-27 12:21 232 12.2
2014-Nov-27 12:15 232 12.2
2014-Nov-27 11:51 232 12.2
2014-Nov-27 11:45 232 12.2
2014-Nov-27 11:21 232 12.2
2014-Nov-27 11:15 232 12.2
2014-Nov-27 10:51 232 12.2
2014-Nov-27 10:45 232 12.2
2014-Nov-27 10:21 232 12.8
2014-Nov-27 10:15 232 12.8
2014-Nov-27 09:51 232 12.8
2014-Nov-27 09:45 232 12.8
2014-Nov-27 09:21 232 13.3
2014-Nov-27 09:15 232 13.3
2014-Nov-27 08:51 232 13.9
2014-Nov-27 08:45 232 13.9
2014-Nov-27 08:21 232 14.4
2014-Nov-27 08:15 232 15.0
2014-Nov-27 07:51 232 15.6
2014-Nov-27 07:45 232 15.6
2014-Nov-27 07:21 232 16.7
2014-Nov-27 07:15 232 17.2
2014-Nov-27 06:51 232 18.3
2014-Nov-27 06:45 232 18.3
2014-Nov-27 06:21 232 18.3
2014-Nov-27 06:15 232 18.3
2014-Nov-27 05:51 232 18.9
2014-Nov-27 05:45 232 18.3
2014-Nov-27 05:21 034 17.8
2014-Nov-27 05:15 355 17.2
2014-Nov-27 04:51 041 17.8
2014-Nov-27 04:45 044 2 gusting 4 17.8
2014-Nov-27 04:21 317 17.8
2014-Nov-27 04:15 17.8
2014-Nov-27 03:51 049 0 gusting 0 17.2
2014-Nov-27 03:45 319 17.2
2014-Nov-27 03:21 030 1 gusting 3 16.1
2014-Nov-27 03:15 331 1 gusting 1 16.1
2014-Nov-27 02:51 005 16.1
2014-Nov-27 02:45 033 16.1
2014-Nov-27 02:21 023 1 gusting 4 16.1
2014-Nov-27 02:15 053 15.6
2014-Nov-27 01:51 298 15.0
2014-Nov-27 01:45 15.0
2014-Nov-27 01:21 337 14.4
2014-Nov-27 01:15 276 13.9
2014-Nov-27 00:51 046 13.3
2014-Nov-27 00:45 047 12.8
2014-Nov-27 00:21 022 12.2
2014-Nov-27 00:15 340 11.7
2014-Nov-26 23:51 345 10.6
2014-Nov-26 23:45 345 10.0
2014-Nov-26 23:21 321 9.4
2014-Nov-26 23:15 321 9.4
2014-Nov-26 22:51 309 8.9
2014-Nov-26 22:45 309 8.9
2014-Nov-26 22:21 331 8.3
2014-Nov-26 22:15 333 8.3
2014-Nov-26 21:51 333 8.3
2014-Nov-26 21:45 331 8.3
2014-Nov-26 21:21 022 7.8
2014-Nov-26 21:15 022 0 gusting 0 8.3
2014-Nov-26 20:51 022 8.3
2014-Nov-26 20:45 021 8.3
2014-Nov-26 20:21 022 8.3
2014-Nov-26 20:15 022 8.3
2014-Nov-26 19:51 022 8.9
2014-Nov-26 19:45 022 8.9
2014-Nov-26 19:21 022 9.4
2014-Nov-26 19:15 021 9.4
2014-Nov-26 18:51 022 9.4
2014-Nov-26 18:45 022 9.4
2014-Nov-26 18:21 021 9.4
2014-Nov-26 18:15 337 9.4
2014-Nov-26 17:51 336 9.4
2014-Nov-26 17:45 336 9.4
2014-Nov-26 17:21 339 0 gusting 0 8.9
2014-Nov-26 17:15 011 0 gusting 4 8.9
2014-Nov-26 16:51 336 2 gusting 5 9.4
2014-Nov-26 16:45 009 0 gusting 5 9.4
2014-Nov-26 16:21 342 4 gusting 8 9.4
2014-Nov-26 16:15 340 2 gusting 6 9.4
2014-Nov-26 15:51 327 2 gusting 6 9.4
2014-Nov-26 15:45 344 4 gusting 10 9.4
2014-Nov-26 15:21 350 3 gusting 6 9.4
2014-Nov-26 15:13 292 3 gusting 4 10.0
2014-Nov-26 14:51 9.4
2014-Nov-26 14:43 333 6 gusting 12 9.4
2014-Nov-26 14:21 013 1 gusting 6 9.4
2014-Nov-26 14:13 019 2 gusting 6 9.4
2014-Nov-26 13:51 343 3 gusting 7 9.4
2014-Nov-26 13:43 350 3 gusting 9 9.4
2014-Nov-26 13:13 327 1 gusting 4 9.4
2014-Nov-26 12:51 005 6 gusting 11 9.4
2014-Nov-26 12:43 347 5 gusting 8 9.4
2014-Nov-26 12:21 026 3 gusting 6 9.4
2014-Nov-26 12:13 346 3 gusting 6 9.4
2014-Nov-26 11:51 322 3 gusting 6 9.4
2014-Nov-26 11:43 341 5 gusting 6 9.4
2014-Nov-26 11:21 355 1 gusting 6 8.9
2014-Nov-26 11:13 027 3 gusting 5 8.9
2014-Nov-26 10:51 024 2 gusting 6 8.9
2014-Nov-26 10:43 028 2 gusting 6 8.9
2014-Nov-26 10:21 328 3 gusting 10 8.9
2014-Nov-26 10:14 011 3 gusting 7 8.9
2014-Nov-26 09:51 032 3 gusting 8 8.9
2014-Nov-26 09:43 028 5 gusting 13 8.9
2014-Nov-26 09:21 348 3 gusting 10 8.9
2014-Nov-26 09:13 009 5 gusting 8 9.4
2014-Nov-26 08:51 021 5 gusting 11 9.4
2014-Nov-26 08:43 9.4
2014-Nov-26 08:21 344 3 gusting 7 10.0
2014-Nov-26 08:13 022 3 gusting 7 10.0
2014-Nov-26 07:51 030 4 gusting 7 10.0
2014-Nov-26 07:43 009 4 gusting 9 10.0
2014-Nov-26 07:21 350 4 gusting 5 10.0
2014-Nov-26 07:13 10.0
2014-Nov-26 06:51 355 6 gusting 12 10.0
2014-Nov-26 06:43 344 3 gusting 5 10.0
2014-Nov-26 06:21 046 4 gusting 6 9.4
2014-Nov-26 06:13 333 4 gusting 8 9.4
2014-Nov-26 05:51 322 5 gusting 7 9.4
2014-Nov-26 05:43 009 4 gusting 9 9.4
2014-Nov-26 05:21 005 5 gusting 11 9.4
2014-Nov-26 05:13 343 6 gusting 12 9.4